[[{"header":{"parameterUnit":"m.s-1","parameterCategory":1,"la1":30.2991,"la2":30.254,"lo1":-89.0895,"lo2":-89.0444,"dy":0.0017,"dx":0.0017,"nx":28,"ny":28,"refTime":"2024-07-15T03:00:00:Z","depth":0,"parameterNumber":2,"parameterNumberName":"U-component_of_WINDS"},"data":[0,0,0,0,0,0,0,0,0,0,0,0,0,0,0,0,0,0,0,0,0,0,0,0,0,0,0,0,0,0,0,0,0,0,0,0,0,0,0,0,0,0,0,0,0,0,0,0,0,0,0,0,0,0,0,0,0,0,2.6397,2.6397,0,2.6463,2.6463,2.6464,2.639,2.6387,2.6385,2.6382,2.6453,2.6457,2.6462,0,0,0,0,0,0,0,0,0,0,0,0,0,2.6212,2.6216,2.6397,2.6398,2.6398,2.6463,2.6463,2.6464,2.6391,2.6387,2.6384,2.6381,2.6452,2.6457,2.6462,0,0,0,0,0,0,0,0,0,0,0,0,0,2.6287,2.6217,2.6397,2.6369,2.6367,2.6462,2.6463,2.6465,2.6392,2.6387,2.6383,2.6379,2.645,2.6456,2.6463,2.6589,0,0,2.6484,2.6487,0,0,0,0,0,0,0,0,2.6283,2.6294,2.6372,2.6371,2.6369,2.6414,2.6424,2.6506,2.6393,2.6383,2.6382,2.6377,2.6444,2.6451,2.6472,2.6592,2.6595,2.6484,2.6488,2.6491,2.6493,0,0,0,0,0,0,0,2.6278,2.6291,2.6423,2.6374,2.6372,2.6356,2.6361,2.644,2.6436,2.6383,2.6378,2.6387,2.6442,2.6466,2.6473,2.6596,2.6484,2.649,2.6494,2.6497,2.6826,2.6831,0,0,0,0,0,0,2.6275,2.6287,2.6421,2.6425,2.6315,2.6362,2.6369,2.6404,2.6435,2.6435,2.639,2.6383,2.6457,2.6466,2.6476,2.6627,2.6491,2.6498,2.6501,2.6821,2.6827,2.6832,0,0,0,0,0,0,2.6271,2.6288,2.6418,2.6354,2.637,2.637,2.641,2.6407,2.6431,2.644,2.644,2.6415,2.6454,2.6466,2.6562,2.6628,2.6501,2.6507,2.6816,2.6823,2.683,2.6929,0,0,0,0,0,0,2.6266,2.6287,2.6333,2.6356,2.6373,2.6502,2.6414,2.6412,2.6443,2.6434,2.6463,2.6464,2.6451,2.6552,2.6569,2.6635,2.6512,2.681,2.6819,2.6827,2.6919,2.6938,2.6954,0,0,0,0,0,2.626,2.6358,2.6336,2.6352,2.6431,2.6505,2.6516,2.6498,2.6448,2.6496,2.6502,2.6463,2.6618,2.6562,2.658,2.665,2.6806,2.6817,2.6827,2.6912,2.6935,2.6954,0,0,0,0,0,0,2.6344,2.6361,2.6336,2.6444,2.6474,2.6493,2.6552,2.6522,2.6567,2.6557,2.6535,2.6542,2.6644,2.6656,2.6594,2.6775,2.6704,2.6719,2.6763,2.6784,2.6801,2.6796,2.6518,0,0,0,0,0,2.6375,2.6432,2.6445,2.6539,2.6556,2.6552,2.6583,2.6567,2.6598,2.661,2.6623,2.6655,2.6711,2.6749,2.6801,2.6922,2.6928,2.6979,2.6996,2.701,2.7023,2.709,2.7113,2.6867,2.6867,2.6867,0,0,2.6439,2.6456,2.6494,2.6557,2.6578,2.664,2.6563,2.6631,2.6677,2.6621,2.6711,2.6723,2.6757,2.6867,2.6916,2.6881,2.7093,2.7024,2.7035,2.704,2.7103,2.7127,2.7147,2.6874,2.6873,2.6872,0,0,2.6589,2.6607,2.6688,2.6711,2.6744,2.6742,2.6762,2.6786,2.6791,2.6882,2.6842,2.6898,2.6994,2.7021,2.7047,2.7211,2.7178,2.7229,2.7319,2.7385,2.7405,2.7422,2.7481,2.7503,2.7242,2.7242,2.7242,0,2.6665,2.6755,2.6734,2.6806,2.6836,2.6788,2.6872,2.6896,2.6945,2.6968,2.6927,2.7049,2.7069,2.7185,2.7225,2.7248,2.7272,2.7225,2.7403,2.742,2.7436,2.7493,2.7515,2.7248,2.7247,2.7247,2.7246,0,2.6849,2.6912,2.6975,2.7023,2.706,2.7137,2.713,2.7171,2.7153,2.7155,2.725,2.7273,2.7329,2.7356,2.7339,2.7471,2.7448,2.7406,2.7335,2.7466,2.7519,2.754,2.7257,2.7255,2.7253,2.7251,0,0,2.705,2.7087,2.7111,2.7133,2.7168,2.7217,2.7294,2.7349,2.7385,2.7422,2.7487,2.7571,2.7534,2.7564,2.755,2.7608,2.7738,2.7559,2.756,2.7592,2.7887,2.7918,2.7943,2.7717,2.7721,2.7724,2.7884,0,2.7201,2.7332,2.7317,2.7444,2.7503,2.746,2.7528,2.7558,2.7563,2.7616,2.7622,2.7683,2.7628,2.7646,2.7701,2.771,2.7797,2.7699,2.7778,2.7781,2.7771,2.7971,2.8003,2.8154,2.7905,2.7908,2.7911,0,2.7393,2.7437,2.7569,2.7597,2.7621,2.7682,2.7732,2.7783,2.7817,2.7817,2.7853,2.7829,2.7909,2.7837,2.7947,2.7881,2.7913,2.7923,2.7929,2.7935,2.7854,2.7983,2.8201,2.8224,2.7943,2.794,2.7938,0,2.7528,2.762,2.7711,2.7732,2.7766,2.781,2.7827,2.7856,2.7892,2.7937,2.796,2.8014,2.8044,2.8087,2.8081,2.8028,2.8194,2.8121,2.8198,2.8198,2.8234,2.8232,2.846,2.8255,2.8255,2.8254,2.8254,0,2.7698,2.7781,2.7773,2.7829,2.7922,2.7905,2.7998,2.8009,2.8037,2.8097,2.8063,2.812,2.8108,2.8165,2.8161,2.8254,2.8268,2.8271,2.8269,2.8274,2.8274,2.8295,2.8284,2.826,2.8259,2.8258,2.8257,0,2.7864,2.7861,2.7959,2.7984,2.7992,2.806,2.8082,2.8136,2.814,2.8216,2.8233,2.8239,2.8305,2.8303,2.8378,2.8375,2.849,2.8476,2.8478,2.8475,2.8553,2.8546,2.8803,2.8836,2.8609,2.8611,2.8613,0,2.7972,2.8035,2.8067,2.8104,2.8124,2.8184,2.822,2.8207,2.8246,2.8292,2.8341,2.8404,2.8454,2.8562,2.8574,2.8632,2.8619,2.8706,2.8628,2.8632,2.8622,2.8618,2.8625,2.872,2.8723,2.8725,2.8727,0,2.8165,2.8161,2.8213,2.8267,2.831,2.8351,2.8389,2.8422,2.8414,2.846,2.8527,2.8565,2.8643,2.8706,2.8763,2.8782,2.8754,2.8751,2.8773,2.8778,2.8777,2.878,2.852,2.8745,2.8743,2.8742,2.8741,2.874,2.8306,2.836,2.8392,2.8452,2.848,2.8517,2.8569,2.858,2.8635,2.8697,2.8687,2.8762,2.8798,2.887,2.8895,2.8955,2.8925,2.8955,2.8963,2.8971,2.898,2.8768,2.8966,2.8965,2.8965,2.8964,2.8964,0,2.8498,2.8517,2.8572,2.8626,2.8675,2.8644,2.8685,2.8728,2.8794,2.8829,2.8879,2.8958,2.902,2.9038,2.9099,2.9144,2.9133,2.9161,2.9157,2.9163,2.9003,2.8979,2.9169,2.9169,2.9169,2.9169,2.9169,2.9169,2.8603,2.8695,2.8695,2.8801,2.882,2.8893,2.892,2.8954,2.8982,2.9071,2.9123,2.9134,2.9163,2.9227,2.9283,2.9287,2.9312,2.9345,2.9344,2.9194,2.9174,2.9154,2.9131,2.935,2.935,2.9498,2.95,2.9501]},{"header":{"parameterUnit":"m.s-1","parameterCategory":1,"la1":30.2991,"la2":30.254,"lo1":-89.0895,"lo2":-89.0444,"dy":0.0017,"dx":0.0017,"nx":28,"ny":28,"refTime":"2024-07-15T03:00:00:Z","depth":0,"parameterNumber":3,"parameterNumberName":"V-component_of_WINDS"},"data":[0,0,0,0,0,0,0,0,0,0,0,0,0,0,0,0,0,0,0,0,0,0,0,0,0,0,0,0,0,0,0,0,0,0,0,0,0,0,0,0,0,0,0,0,0,0,0,0,0,0,0,0,0,0,0,0,0,0,-1.9798,-1.9797,0,-1.9714,-1.9713,-1.9712,-1.9651,-1.965,-1.965,-1.9649,-1.9557,-1.9555,-1.9553,0,0,0,0,0,0,0,0,0,0,0,0,0,-1.99,-1.9899,-1.9798,-1.9797,-1.9796,-1.9714,-1.9713,-1.9712,-1.9651,-1.965,-1.9649,-1.9649,-1.9558,-1.9555,-1.9553,0,0,0,0,0,0,0,0,0,0,0,0,0,-1.984,-1.9898,-1.9798,-1.9756,-1.9751,-1.9714,-1.9713,-1.9711,-1.9651,-1.965,-1.9649,-1.9649,-1.9558,-1.9556,-1.9553,-1.9549,0,0,-1.9543,-1.9542,0,0,0,0,0,0,0,0,-1.9843,-1.9836,-1.9763,-1.9759,-1.9754,-1.9692,-1.9715,-1.9657,-1.9651,-1.9689,-1.9649,-1.9648,-1.9602,-1.9596,-1.9581,-1.9545,-1.9541,-1.9543,-1.9541,-1.954,-1.9539,0,0,0,0,0,0,0,-1.9848,-1.9839,-1.9765,-1.9762,-1.9756,-1.9739,-1.973,-1.9704,-1.965,-1.9685,-1.9681,-1.9672,-1.9599,-1.9584,-1.9579,-1.954,-1.9543,-1.9541,-1.9539,-1.9538,-1.9494,-1.9495,0,0,0,0,0,0,-1.9859,-1.9843,-1.9767,-1.9762,-1.9798,-1.9738,-1.9727,-1.9712,-1.9651,-1.9641,-1.9673,-1.9669,-1.959,-1.9582,-1.9575,-1.9566,-1.954,-1.9537,-1.9536,-1.9494,-1.9494,-1.9495,0,0,0,0,0,0,-1.9862,-1.9853,-1.9771,-1.9801,-1.979,-1.9737,-1.9721,-1.9711,-1.9696,-1.9641,-1.9631,-1.9668,-1.9589,-1.9579,-1.9556,-1.9562,-1.9536,-1.9533,-1.9493,-1.9494,-1.9495,-1.9548,0,0,0,0,0,0,-1.9865,-1.9854,-1.9854,-1.9802,-1.9788,-1.9755,-1.9721,-1.971,-1.9692,-1.9687,-1.9633,-1.9624,-1.9587,-1.9561,-1.9553,-1.9557,-1.9531,-1.9492,-1.9493,-1.9494,-1.9546,-1.9551,-1.9555,0,0,0,0,0,-1.9869,-1.9871,-1.9854,-1.9845,-1.9787,-1.9756,-1.9748,-1.9707,-1.9693,-1.9691,-1.9655,-1.9625,-1.9563,-1.9559,-1.955,-1.9553,-1.9492,-1.9493,-1.9494,-1.9544,-1.955,-1.9555,0,0,0,0,0,0,-1.9924,-1.9864,-1.9844,-1.9831,-1.9799,-1.9746,-1.9742,-1.9716,-1.9686,-1.9682,-1.9632,-1.962,-1.9602,-1.9575,-1.9572,-1.9546,-1.9523,-1.9523,-1.9564,-1.9569,-1.9574,-1.958,-1.9528,0,0,0,0,0,-1.9935,-1.9916,-1.9864,-1.9857,-1.9842,-1.9795,-1.978,-1.9752,-1.9716,-1.9702,-1.9665,-1.9629,-1.9601,-1.9584,-1.9556,-1.9542,-1.9528,-1.9539,-1.9544,-1.9549,-1.9548,-1.9537,-1.9541,-1.95,-1.95,-1.95,0,0,-1.9956,-1.9921,-1.9912,-1.9867,-1.9839,-1.9819,-1.9784,-1.9764,-1.9748,-1.9698,-1.9674,-1.9646,-1.9603,-1.9584,-1.9574,-1.9561,-1.9557,-1.955,-1.9554,-1.9551,-1.9539,-1.9543,-1.9547,-1.9501,-1.9501,-1.95,0,0,-1.9985,-1.9958,-1.9948,-1.9921,-1.988,-1.9849,-1.9847,-1.9797,-1.9777,-1.9753,-1.9714,-1.9693,-1.9647,-1.9617,-1.9596,-1.9614,-1.9585,-1.9606,-1.9631,-1.9621,-1.9624,-1.9626,-1.9631,-1.9633,-1.9606,-1.9606,-1.9606,0,-2.0016,-1.9986,-1.9946,-1.9929,-1.9909,-1.9865,-1.9853,-1.9829,-1.978,-1.9766,-1.9753,-1.9694,-1.9662,-1.9635,-1.9639,-1.9624,-1.9618,-1.9611,-1.9627,-1.9629,-1.9631,-1.9635,-1.9637,-1.9609,-1.9609,-1.9609,-1.9608,0,-2.0026,-2.0006,-2.0003,-1.9959,-1.9939,-1.9924,-1.988,-1.9864,-1.9838,-1.9807,-1.9782,-1.9742,-1.9704,-1.9696,-1.967,-1.9665,-1.9658,-1.9637,-1.9613,-1.9638,-1.9641,-1.9642,-1.9613,-1.9612,-1.9611,-1.9611,0,0,-2.0086,-2.002,-2.002,-1.9999,-1.995,-1.9932,-1.9915,-1.988,-1.9867,-1.9835,-1.9817,-1.9779,-1.9759,-1.9735,-1.9705,-1.9697,-1.9711,-1.9676,-1.9674,-1.9682,-1.9701,-1.9717,-1.9719,-1.9692,-1.9692,-1.9692,-1.9704,0,-2.0106,-2.0076,-2.0039,-2.002,-1.9999,-1.9957,-1.9941,-1.9909,-1.988,-1.9857,-1.9823,-1.9797,-1.9773,-1.9758,-1.9748,-1.9712,-1.9714,-1.971,-1.9673,-1.9672,-1.9684,-1.9721,-1.9737,-1.975,-1.9705,-1.9705,-1.9705,0,-2.0126,-2.0097,-2.0077,-2.0029,-2.0019,-2.0007,-1.9971,-1.995,-1.9911,-1.989,-1.9864,-1.9832,-1.981,-1.979,-1.9757,-1.9755,-1.9738,-1.9718,-1.9717,-1.9711,-1.969,-1.9714,-1.9754,-1.9756,-1.9707,-1.9707,-1.9707,0,-2.017,-2.0126,-2.0108,-2.0092,-2.0036,-2.0028,-2.0004,-1.9965,-1.9946,-1.9914,-1.99,-1.9866,-1.9846,-1.9819,-1.9777,-1.9767,-1.9748,-1.9725,-1.9728,-1.9729,-1.9725,-1.9725,-1.9761,-1.9716,-1.9716,-1.9716,-1.9716,0,-2.0195,-2.0184,-2.0127,-2.0116,-2.0101,-2.0058,-2.0044,-2.0016,-1.9982,-1.9962,-1.9923,-1.9905,-1.9852,-1.9827,-1.9794,-1.9771,-1.9763,-1.9744,-1.9735,-1.9746,-1.9749,-1.9733,-1.973,-1.9717,-1.9717,-1.9717,-1.9716,0,-2.0242,-2.0204,-2.0181,-2.0131,-2.0118,-2.0109,-2.0065,-2.0051,-2.002,-1.9996,-1.9988,-1.9938,-1.9907,-1.9863,-1.9818,-1.9796,-1.9776,-1.9763,-1.979,-1.9785,-1.9789,-1.9789,-1.9815,-1.9816,-1.9773,-1.9773,-1.9774,0,-2.026,-2.0251,-2.02,-2.0185,-2.0163,-2.014,-2.0121,-2.0077,-2.0058,-2.0013,-2.0004,-1.9971,-1.9941,-1.9893,-1.9851,-1.9816,-1.9801,-1.9812,-1.9795,-1.9807,-1.9799,-1.98,-1.9797,-1.9816,-1.9817,-1.9817,-1.9818,0,-2.0296,-2.0278,-2.0252,-2.022,-2.0199,-2.0171,-2.0141,-2.0131,-2.008,-2.0061,-2.003,-2.0007,-1.9962,-1.9928,-1.9887,-1.986,-1.983,-1.9824,-1.9822,-1.9834,-1.9849,-1.9839,-1.98,-1.9823,-1.9823,-1.9822,-1.9822,-1.9822,-2.0327,-2.0317,-2.0279,-2.0252,-2.0226,-2.0199,-2.0183,-2.0151,-2.0125,-2.0086,-2.0061,-2.0031,-1.999,-1.9933,-1.9907,-1.9881,-1.9869,-1.9867,-1.9866,-1.9866,-1.9869,-1.9855,-1.9873,-1.9873,-1.9873,-1.9873,-1.9872,0,-2.036,-2.0334,-2.031,-2.027,-2.0248,-2.0225,-2.019,-2.0172,-2.0147,-2.0113,-2.0086,-2.0049,-2.0016,-1.9972,-1.9935,-1.9922,-1.9907,-1.9914,-1.9913,-1.9907,-1.9883,-1.9887,-1.9926,-1.9926,-1.9926,-1.9926,-1.9926,-1.9926,-2.0374,-2.0355,-2.0332,-2.0297,-2.0271,-2.0242,-2.0224,-2.0198,-2.0171,-2.0133,-2.0106,-2.0078,-2.0039,-1.9999,-1.9967,-1.9955,-1.9942,-1.9953,-1.9936,-1.9914,-1.9909,-1.9904,-1.9908,-1.9951,-1.9951,-1.9962,-1.9962,-1.9962]}]]